EW6756 Weather Reports


Display with metric or nautical units.
time (UTC)temp
F
wind
direction
speed
MPH
gust
MPH
rain 1hr
in
rain 24hr
in
rain mn
in
humidity
%
barometer
mb
20260509080003 53 22 4.0 11.0 0.00 0.00 0.00 61 1021.4
20260509075503 53 41 4.0 11.0 0.00 0.00 0.00 61 1021.6
20260509075003 53 76 3.0 11.0 0.00 0.00 0.00 62 1021.7
20260509074503 53 106 2.0 8.0 0.00 0.00 0.00 63 1021.4
20260509074003 53 74 3.0 10.0 0.00 0.00 0.00 62 1021.6
20260509073503 52 37 3.0 11.0 0.00 0.00 0.00 63 1021.5
20260509073003 52 27 4.0 11.0 0.00 0.00 0.00 64 1021.6
20260509072503 52 43 3.0 11.0 0.00 0.00 0.00 64 1021.5
20260509072003 52 52 2.0 11.0 0.00 0.00 0.00 65 1021.7
20260509071503 52 40 3.0 11.0 0.00 0.00 0.00 65 1021.7
20260509071003 51 47 2.0 8.0 0.00 0.00 0.00 65 1021.7
20260509070503 51 53 2.0 7.0 0.00 0.00 0.00 65 1021.9
20260509070003 51 57 2.0 7.0 0.00 0.00 0.00 65 1021.7
20260509065503 51 49 2.0 8.0 0.00 0.00 0.00 66 1021.8
20260509065217 50 44 3.0 8.0 0.00 0.00 0.00 66 1021.6
20260509064503 50 85 2.0 7.0 0.00 0.00 0.00 67 1021.8
20260509064003 50 90 2.0 7.0 0.00 0.00 0.00 67 1021.7
20260509063503 50 58 3.0 7.0 0.00 0.00 0.00 67 1022.0
20260509063003 49 39 2.0 7.0 0.00 0.00 0.00 67 1021.6
20260509062503 49 45 2.0 7.0 0.00 0.00 0.00 68 1021.5
20260509062003 49 53 2.0 8.0 0.00 0.00 0.00 68 1021.6
20260509061504 49 57 1.0 10.0 0.00 0.00 0.00 68 1021.8
20260509061218 49 66 2.0 10.0 0.00 0.00 0.00 68 1021.5
20260509060717 48 66 2.0 10.0 0.00 0.00 0.00 68 1021.8
20260509060003 48 65 2.0 8.0 0.00 0.00 0.00 69 1021.6
20260509055503 48 68 1.0 5.0 0.00 0.00 0.00 69 1021.8
20260509055218 47 78 1.0 5.0 0.00 0.00 0.00 69 1021.7
20260509054503 47 68 1.0 4.0 0.00 0.00 0.00 70 1021.8
20260509054003 47 54 1.0 5.0 0.00 0.00 0.00 70 1022.0
20260509053503 47 36 2.0 5.0 0.00 0.00 0.00 70 1021.8
20260509053003 46 34 2.0 5.0 0.00 0.00 0.00 70 1021.7
20260509052503 46 40 2.0 5.0 0.00 0.00 0.00 71 1021.6
20260509052003 46 37 2.0 5.0 0.00 0.00 0.00 71 1021.7
20260509051503 45 25 1.0 4.0 0.00 0.00 0.00 71 1021.6
20260509051218 45 30 1.0 4.0 0.00 0.00 0.00 72 1021.5
20260509050503 44 25 1.0 4.0 0.00 0.00 0.00 72 1021.5
20260509050003 44 17 1.0 3.0 0.00 0.00 0.00 72 1021.6
20260509045503 44 21 0.0 3.0 0.00 0.00 0.00 72 1021.6
20260509045003 43 26 0.0 3.0 0.00 0.00 0.00 72 1021.6
20260509044503 43 21 0.0 3.0 0.00 0.00 0.00 72 1021.5
20260509044003 42 16 0.0 3.0 0.00 0.00 0.00 72 1021.8
20260509043503 42 21 1.0 3.0 0.00 0.00 0.00 72 1021.8
20260509043003 42 26 0.0 1.0 0.00 0.00 0.00 71 1021.8
20260509042503 42 21 0.0 1.0 0.00 0.00 0.00 71 1021.7
20260509042003 42 19 0.0 1.0 0.00 0.00 0.00 71 1021.7
20260509041503 42 22 0.0 3.0 0.00 0.00 0.00 70 1021.5
20260509041003 42 22 0.0 3.0 0.00 0.00 0.00 70 1021.5
20260509040503 42 19 0.0 3.0 0.00 0.00 0.00 70 1021.4
20260509040003 42 19 0.0 3.0 0.00 0.00 0.00 70 1021.6
20260509035503 42 26 0.0 3.0 0.00 0.00 0.00 70 1021.5
20260509035003 42 33 0.0 3.0 0.00 0.00 0.00 69 1021.6
20260509034716 42 34 0.0 3.0 0.00 0.00 0.00 69 1021.7
20260509034217 42 30 0.0 3.0 0.00 0.00 0.00 69 1021.5
20260509033718 43 35 0.0 3.0 0.00 0.00 0.00 68 1021.6
20260509033003 43 46 0.0 3.0 0.00 0.00 0.00 67 1021.5
20260509032503 44 46 0.0 3.0 0.00 0.00 0.00 67 1021.8
20260509032003 44 37 1.0 3.0 0.00 0.00 0.00 67 1021.7
20260509031503 44 37 1.0 4.0 0.00 0.00 0.00 67 1021.9
20260509031003 44 42 1.0 4.0 0.00 0.00 0.00 67 1021.9
20260509030503 45 45 1.0 3.0 0.00 0.00 0.00 66 1021.8
20260509030003 45 58 1.0 4.0 0.00 0.00 0.00 67 1021.9
20260509025503 45 62 1.0 4.0 0.00 0.00 0.00 66 1021.8
20260509025217 45 57 0.0 3.0 0.00 0.00 0.00 66 1021.7
20260509024503 45 52 0.0 3.0 0.00 0.00 0.00 66 1021.8
20260509024003 45 53 0.0 4.0 0.00 0.00 0.00 66 1021.9
20260509023503 46 54 1.0 4.0 0.00 0.00 0.00 66 1021.9
20260509023003 46 55 1.0 4.0 0.00 0.00 0.00 65 1021.8
20260509022503 46 44 1.0 4.0 0.00 0.00 0.00 65 1021.9
20260509022003 46 60 1.0 5.0 0.00 0.00 0.00 66 1021.6
20260509021503 46 66 1.0 5.0 0.00 0.00 0.00 65 1021.7
20260509021217 46 53 1.0 5.0 0.00 0.00 0.00 66 1021.8
20260509020503 46 89 1.0 5.0 0.00 0.00 0.00 66 1021.8
20260509020003 46 90 1.0 5.0 0.00 0.00 0.00 66 1021.8
20260509015503 46 68 0.0 4.0 0.00 0.00 0.00 66 1021.8
20260509015217 46 68 1.0 4.0 0.00 0.00 0.00 66 1021.6
20260509014503 46 68 1.0 4.0 0.00 0.00 0.00 66 1021.6
20260509014003 46 59 1.0 3.0 0.00 0.00 0.00 66 1021.8
20260509013503 46 55 0.0 3.0 0.00 0.00 0.00 66 1021.7
20260509013003 46 50 1.0 3.0 0.00 0.00 0.00 66 1021.8
20260509012503 46 76 1.0 5.0 0.00 0.00 0.00 66 1021.7
20260509012003 46 69 0.0 5.0 0.00 0.00 0.00 66 1021.7
20260509011503 46 51 0.0 4.0 0.00 0.00 0.00 66 1021.7
20260509011003 46 60 1.0 4.0 0.00 0.00 0.00 66 1021.7
20260509010503 46 63 1.0 4.0 0.00 0.00 0.00 66 1021.6
20260509010218 46 66 1.0 4.0 0.00 0.00 0.00 66 1021.6
20260509005717 46 64 1.0 4.0 0.00 0.00 0.00 66 1021.6
20260509005003 46 63 0.0 4.0 0.00 0.00 0.00 66 1021.8
20260509004503 46 53 1.0 4.0 0.00 0.00 0.00 66 1021.7
20260509004003 47 74 1.0 4.0 0.00 0.00 0.00 66 1021.7
20260509003503 47 94 1.0 4.0 0.00 0.00 0.00 66 1021.5
20260509003003 47 105 0.0 4.0 0.00 0.00 0.00 66 1021.5
20260509002503 47 98 0.0 4.0 0.00 0.00 0.00 65 1021.6
20260509002003 47 95 1.0 7.0 0.00 0.00 0.00 65 1021.6
20260509001503 47 74 1.0 7.0 0.00 0.00 0.00 65 1021.7
20260509001003 48 78 1.0 7.0 0.00 0.00 0.00 65 1021.7
20260509000503 48 79 0.0 4.0 0.00 0.00 0.00 66 1021.4
20260509000003 48 61 1.0 4.0 0.00 0.00 0.00 66 1021.4
20260508235503 48 68 1.0 5.0 0.00 0.00 0.00 66 1021.6
20260508235003 48 76 1.0 5.0 0.00 0.00 0.00 66 1021.5
20260508234717 48 95 1.0 5.0 0.00 0.00 0.00 67 1021.5
20260508234003 47 86 1.0 5.0 0.00 0.00 0.00 67 1021.6
20260508233503 47 67 1.0 5.0 0.00 0.00 0.00 68 1021.6
20260508233003 47 65 1.0 5.0 0.00 0.00 0.00 68 1021.7
20260508232503 47 66 1.0 4.0 0.00 0.00 0.00 68 1021.6
20260508232003 47 73 1.0 5.0 0.00 0.00 0.00 68 1021.8
20260508231503 47 60 0.0 5.0 0.00 0.00 0.00 68 1021.9
20260508231003 47 21 0.0 3.0 0.00 0.00 0.00 68 1021.7
20260508230503 47 36 0.0 4.0 0.00 0.00 0.00 68 1021.6
20260508230003 47 51 0.0 4.0 0.00 0.00 0.00 68 1021.8
20260508225503 47 79 0.0 3.0 0.00 0.00 0.00 68 1021.9
20260508225003 47 65 0.0 3.0 0.00 0.00 0.00 68 1021.7
20260508224503 47 51 0.0 3.0 0.00 0.00 0.00 68 1022.0
20260508224217 47 55 0.0 3.0 0.00 0.00 0.00 68 1021.6
20260508223503 47 46 0.0 3.0 0.00 0.00 0.00 67 1021.7
20260508223003 47 59 0.0 3.0 0.00 0.00 0.00 67 1021.8
20260508222503 47 68 0.0 3.0 0.00 0.00 0.00 66 1021.8
20260508222217 47 72 0.0 3.0 0.00 0.00 0.00 66 1021.7
20260508221503 48 38 0.0 1.0 0.00 0.00 0.00 65 1021.8
20260508221003 48 35 0.0 3.0 0.00 0.00 0.00 65 1022.0
20260508220503 48 23 0.0 3.0 0.00 0.00 0.00 65 1022.0
20260508220003 48 42 0.0 3.0 0.00 0.00 0.00 64 1021.6
20260508215718 48 57 0.0 3.0 0.00 0.00 0.00 64 1021.9
20260508215003 48 40 0.0 3.0 0.00 0.00 0.00 63 1021.9
20260508214503 48 34 0.0 4.0 0.00 0.00 0.00 63 1021.7
20260508214217 49 41 0.0 4.0 0.00 0.00 0.00 62 1021.7
20260508213503 49 48 0.0 4.0 0.00 0.00 0.00 62 1021.8
20260508213003 49 30 0.0 1.0 0.00 0.00 0.00 62 1021.8
20260508212503 49 35 0.0 1.0 0.00 0.00 0.00 62 1021.7
20260508212217 49 39 0.0 3.0 0.00 0.00 0.00 61 1021.6
20260508211503 49 43 0.0 4.0 0.00 0.00 0.00 61 1021.8
20260508211217 49 41 1.0 4.0 0.00 0.00 0.00 61 1021.6
20260508210503 49 22 1.0 4.0 0.00 0.00 0.00 60 1021.7
20260508210003 49 14 1.0 5.0 0.00 0.00 0.00 60 1021.7
20260508205503 49 6 1.0 5.0 0.00 0.00 0.00 59 1021.6
20260508205003 49 9 2.0 5.0 0.00 0.00 0.00 59 1021.6
20260508204503 49 15 2.0 5.0 0.00 0.00 0.00 58 1021.5
20260508204003 50 15 2.0 7.0 0.00 0.00 0.00 58 1021.6
20260508203503 50 21 3.0 8.0 0.00 0.00 0.00 57 1021.6
20260508203003 50 24 3.0 8.0 0.00 0.00 0.00 57 1021.6
20260508202503 51 23 3.0 5.0 0.00 0.00 0.00 56 1021.8
20260508202003 51 30 2.0 5.0 0.00 0.00 0.00 56 1021.6
20260508201503 51 26 2.0 5.0 0.00 0.00 0.00 55 1021.7
20260508201003 52 26 2.0 7.0 0.00 0.00 0.00 55 1021.6
20260508200503 52 38 2.0 7.0 0.00 0.00 0.00 54 1021.6
20260508200003 52 37 2.0 5.0 0.00 0.00 0.00 54 1021.5
20260508195503 52 28 2.0 7.0 0.00 0.00 0.00 53 1021.4
20260508195216 52 28 3.0 8.0 0.00 0.00 0.00 53 1021.4
20260508194503 53 34 3.0 8.0 0.00 0.00 0.00 53 1021.5
20260508194003 53 22 3.0 7.0 0.00 0.00 0.00 52 1021.2
20260508193503 53 33 3.0 8.0 0.00 0.00 0.00 52 1021.4
20260508193003 53 40 3.0 8.0 0.00 0.00 0.00 52 1021.2
20260508192503 53 30 3.0 8.0 0.00 0.00 0.00 52 1021.1
20260508192003 53 42 3.0 8.0 0.00 0.00 0.00 51 1021.0
20260508191503 54 49 2.0 8.0 0.00 0.00 0.00 51 1021.0
20260508191003 54 44 2.0 7.0 0.00 0.00 0.00 51 1020.8
20260508190717 54 39 2.0 10.0 0.00 0.00 0.00 51 1020.8
20260508190003 54 46 2.0 10.0 0.00 0.00 0.00 50 1020.9
20260508185503 54 17 3.0 10.0 0.00 0.00 0.00 50 1021.0
20260508185003 55 23 5.0 14.0 0.00 0.00 0.00 50 1020.9
20260508184503 55 38 5.0 14.0 0.00 0.00 0.00 49 1020.7
20260508184003 55 26 6.0 14.0 0.00 0.00 0.00 49 1020.6
20260508183503 55 15 6.0 12.0 0.00 0.00 0.00 49 1020.6
20260508183003 55 28 6.0 12.0 0.00 0.00 0.00 49 1020.5
20260508182503 55 40 5.0 12.0 0.00 0.00 0.00 49 1020.5
20260508182003 56 42 3.0 10.0 0.00 0.00 0.00 49 1020.6
20260508181503 56 47 3.0 7.0 0.00 0.00 0.00 48 1020.3
20260508181003 56 50 2.0 7.0 0.00 0.00 0.00 48 1020.2
20260508180503 56 42 2.0 10.0 0.00 0.00 0.00 47 1020.2
20260508180003 56 44 3.0 10.0 0.00 0.00 0.00 47 1020.3
20260508175503 56 44 2.0 10.0 0.00 0.00 0.00 46 1020.4
20260508175003 56 52 2.0 7.0 0.00 0.00 0.00 46 1020.3
20260508174503 56 81 2.0 10.0 0.00 0.00 0.00 46 1020.1
20260508174218 56 70 2.0 10.0 0.00 0.00 0.00 45 1020.0
20260508173717 57 47 2.0 10.0 0.00 0.00 0.00 46 1019.9
20260508173003 57 52 1.0 7.0 0.00 0.00 0.00 46 1020.1
20260508172503 57 67 3.0 14.0 0.00 0.00 0.00 45 1020.0
20260508172217 57 53 4.0 14.0 0.00 0.00 0.00 44 1020.1
20260508171503 57 28 4.0 12.0 0.00 0.00 0.00 44 1020.1
20260508171003 57 55 5.0 16.0 0.00 0.00 0.00 43 1019.8
20260508170503 57 55 6.0 16.0 0.00 0.00 0.00 43 1019.8
20260508170217 57 46 7.0 16.0 0.00 0.00 0.00 42 1019.9
20260508165503 58 26 4.0 15.0 0.00 0.00 0.00 42 1019.9
20260508165004 58 30 6.0 22.0 0.00 0.00 0.00 41 1019.8
20260508164503 58 31 8.0 22.0 0.00 0.00 0.00 41 1019.7
20260508164217 58 34 7.0 19.0 0.00 0.00 0.00 41 1019.7
20260508163503 58 51 4.0 19.0 0.00 0.00 0.00 40 1019.6
20260508163003 58 48 4.0 14.0 0.00 0.00 0.00 40 1019.7
20260508162503 58 47 6.0 12.0 0.00 0.00 0.00 39 1019.6
20260508162003 58 42 6.0 15.0 0.00 0.00 0.00 39 1019.6
20260508161503 58 34 7.0 15.0 0.00 0.00 0.00 39 1019.8
20260508161003 58 37 7.0 16.0 0.00 0.00 0.00 39 1019.7
20260508160503 58 45 7.0 16.0 0.00 0.00 0.00 38 1019.5
20260508160003 59 40 5.0 12.0 0.00 0.00 0.00 37 1019.9
20260508155503 59 21 6.0 21.0 0.00 0.00 0.00 37 1019.6
20260508155217 59 20 7.0 21.0 0.00 0.00 0.00 37 1019.7
20260508154503 59 32 8.0 16.0 0.00 0.00 0.00 36 1019.7
20260508154003 59 32 8.0 16.0 0.00 0.00 0.00 36 1019.8
20260508153718 59 26 7.0 16.0 0.00 0.00 0.00 36 1019.6
20260508153003 60 28 8.0 18.0 0.00 0.00 0.00 35 1019.8
20260508152503 60 31 7.0 18.0 0.00 0.00 0.00 35 1019.5
20260508152003 60 57 7.0 16.0 0.00 0.00 0.00 35 1019.7
20260508151503 60 51 8.0 16.0 0.00 0.00 0.00 34 1019.8
20260508151003 60 41 6.0 16.0 0.00 0.00 0.00 34 1019.7
20260508150503 60 50 5.0 18.0 0.00 0.00 0.00 34 1019.7
20260508150003 60 25 7.0 23.0 0.00 0.00 0.00 33 1019.8
20260508145503 61 17 8.0 23.0 0.00 0.00 0.00 33 1019.6
20260508145003 61 27 8.0 23.0 0.00 0.00 0.00 33 1020.0
20260508144503 61 24 7.0 16.0 0.00 0.00 0.00 33 1019.8
20260508144003 61 43 6.0 18.0 0.00 0.00 0.00 34 1019.8
20260508143503 61 26 7.0 22.0 0.00 0.00 0.00 33 1020.1
20260508143003 61 28 7.0 22.0 0.00 0.00 0.00 35 1020.3
20260508142717 61 33 6.0 23.0 0.00 0.00 0.00 35 1019.9
20260508142003 61 25 5.0 23.0 0.00 0.00 0.00 35 1019.9
20260508141503 61 29 8.0 18.0 0.00 0.00 0.00 35 1020.0
20260508141218 61 36 7.0 18.0 0.00 0.00 0.00 35 1020.0
20260508140503 61 85 5.0 25.0 0.00 0.00 0.00 35 1020.0
20260508140218 61 72 6.0 25.0 0.00 0.00 0.00 35 1019.9
20260508135503 61 44 6.0 25.0 0.00 0.00 0.00 34 1020.1
20260508135218 61 41 5.0 16.0 0.00 0.00 0.00 34 1020.0
20260508134717 61 34 5.0 15.0 0.00 0.00 0.00 34 1020.2
20260508134218 61 24 4.0 15.0 0.00 0.00 0.00 34 1020.0
20260508133503 61 97 3.0 12.0 0.00 0.00 0.00 34 1020.1
20260508133218 61 112 3.0 12.0 0.00 0.00 0.00 33 1020.2
20260508132503 61 108 4.0 14.0 0.00 0.00 0.00 33 1020.3
20260508132003 61 55 5.0 16.0 0.00 0.00 0.00 34 1020.3
20260508131503 61 52 4.0 16.0 0.00 0.00 0.00 34 1020.3
20260508131003 61 61 6.0 16.0 0.00 0.00 0.00 34 1020.5
20260508130503 61 23 7.0 21.0 0.00 0.00 0.00 35 1020.4
20260508130003 61 36 6.0 21.0 0.00 0.00 0.00 35 1020.4
20260508125503 60 51 6.0 16.0 0.00 0.00 0.00 36 1020.7
20260508125003 60 30 7.0 18.0 0.00 0.00 0.00 36 1020.6
20260508124503 60 12 8.0 29.0 0.00 0.00 0.00 36 1020.7
20260508124003 60 14 9.0 29.0 0.00 0.00 0.00 36 1020.4
20260508123717 60 11 8.0 21.0 0.00 0.00 0.00 38 1020.6
20260508123003 60 17 7.0 21.0 0.00 0.00 0.00 37 1020.5
20260508122503 60 40 5.0 12.0 0.00 0.00 0.00 39 1020.5
20260508122003 60 61 5.0 14.0 0.00 0.00 0.00 38 1020.5
20260508121503 60 59 5.0 14.0 0.00 0.00 0.00 38 1020.6
20260508121217 60 66 5.0 14.0 0.00 0.00 0.00 38 1020.7
20260508120503 60 74 4.0 14.0 0.00 0.00 0.00 39 1020.4
20260508120003 60 59 4.0 14.0 0.00 0.00 0.00 39 1020.5
20260508115503 60 61 4.0 14.0 0.00 0.00 0.00 39 1020.6
20260508115003 60 49 4.0 15.0 0.00 0.00 0.00 39 1020.5
20260508114503 60 52 5.0 15.0 0.00 0.00 0.00 40 1020.9
20260508114003 60 79 4.0 15.0 0.00 0.00 0.00 40 1020.7
20260508113503 59 57 5.0 21.0 0.00 0.00 0.00 41 1020.5
20260508113004 59 45 7.0 21.0 0.00 0.00 0.00 41 1020.7
20260508112503 59 45 9.0 21.0 0.00 0.00 0.00 41 1020.8
20260508112003 59 43 8.0 21.0 0.00 0.00 0.00 42 1020.7
20260508111718 59 43 7.0 16.0 0.00 0.00 0.00 43 1020.7
20260508111003 59 52 7.0 18.0 0.00 0.00 0.00 43 1020.9
20260508110503 59 43 6.0 18.0 0.00 0.00 0.00 44 1020.7
20260508110004 59 39 6.0 19.0 0.00 0.00 0.00 45 1020.7
20260508105503 59 48 7.0 19.0 0.00 0.00 0.00 45 1021.0
20260508105003 59 65 6.0 19.0 0.00 0.00 0.00 45 1020.9
20260508104503 58 73 4.0 11.0 0.00 0.00 0.00 47 1020.8
20260508104003 58 61 4.0 12.0 0.00 0.00 0.00 46 1020.7
20260508103718 59 53 5.0 12.0 0.00 0.00 0.00 46 1020.7
20260508103003 58 55 5.0 12.0 0.00 0.00 0.00 47 1020.7
20260508102503 58 62 3.0 12.0 0.00 0.00 0.00 48 1021.0
20260508102003 58 171 3.0 11.0 0.00 0.00 0.00 48 1020.7
20260508101503 58 121 3.0 8.0 0.00 0.00 0.00 48 1020.8
20260508101003 58 111 3.0 14.0 0.00 0.00 0.00 49 1021.1
20260508100503 57 67 3.0 14.0 0.00 0.00 0.00 50 1020.6
20260508100003 57 45 6.0 14.0 0.00 0.00 0.00 49 1020.9
20260508095503 57 41 8.0 15.0 0.00 0.00 0.00 50 1021.0
20260508095003 57 46 8.0 15.0 0.00 0.00 0.00 51 1021.0
20260508094503 57 55 5.0 15.0 0.00 0.00 0.00 51 1020.9
20260508094217 57 47 4.0 15.0 0.00 0.00 0.00 51 1020.9
20260508093503 56 36 4.0 16.0 0.00 0.00 0.00 51 1021.0
20260508093003 56 38 6.0 16.0 0.00 0.00 0.00 51 1021.3
20260508092503 56 38 7.0 16.0 0.00 0.00 0.00 52 1021.2
20260508092003 56 33 4.0 11.0 0.00 0.00 0.00 52 1021.1
20260508091503 56 46 2.0 10.0 0.00 0.00 0.00 53 1021.2
20260508091003 56 37 2.0 10.0 0.00 0.00 0.00 53 1021.2
20260508090503 56 77 3.0 12.0 0.00 0.00 0.00 53 1021.2
20260508090003 55 58 5.0 14.0 0.00 0.00 0.00 54 1021.3
20260508085503 55 46 5.0 14.0 0.00 0.00 0.00 54 1021.2
20260508085003 55 55 4.0 11.0 0.00 0.00 0.00 55 1021.2
20260508084503 55 56 4.0 14.0 0.00 0.00 0.00 55 1021.2
20260508084003 55 65 4.0 14.0 0.00 0.00 0.00 54 1021.2
20260508083717 55 69 4.0 14.0 0.00 0.00 0.00 54 1021.3
20260508083218 54 72 3.0 10.0 0.00 0.00 0.00 54 1021.1
20260508082503 54 47 4.0 12.0 0.00 0.00 0.00 54 1021.0
20260508082003 54 33 5.0 12.0 0.00 0.00 0.00 54 1021.2
20260508081503 54 36 4.0 12.0 0.00 0.00 0.00 54 1021.0
20260508081003 54 144 3.0 12.0 0.00 0.00 0.00 53 1021.1
20260508080503 53 151 3.0 12.0 0.00 0.00 0.00 53 1021.0
20260508080218 53 109 2.0 8.0 0.00 0.00 0.00 52 1021.3